Location: Stara Lesna
(49.1528°N, 20.2911°E)
Time: 07:05:57
(UTC+02:00)

Cosmos 1666 - Pass Details

Date: 21 September 2019
Orbit: 498 x 521 km, 82.5° (Epoch: 14 October)

Event Time Altitude Azimuth Distance (km) Brightness Sun altitude
Rises 04:56:45 0° 351° (N) 2,608 6.4 -14.7°
Reaches altitude 10° 04:58:53 10° 352° (N) 1,721 5.5 -14.3°
Maximum altitude 05:02:39 80° 80° (E) 518 2.7 -13.8°
Drops below altitude 10° 05:06:25 10° 168° (SSE) 1,717 5.3 -13.2°
Sets 05:08:32 0° 169° (S) 2,601 6.2 -12.8°
